Location: Unspecified
(43.4354°N, 0.0000°E)
Time: 11:28:18
(UTC+00:00)

A-11 Canister half - Visible Passes

Search period start: 25 June 2019 00:00
Search period end: 05 July 2019 00:00
Orbit: 1526 x 1683 km, 47.3° (Epoch: 24 June)

Date Brightness Start Highest point End Pass type
(mag) Time Alt. Az. Time Alt. Az. Time Alt. Az.
25 Jun 10.2 01:45:38 17° SSE 01:50:27 25° SE 01:57:34 10° E visible
26 Jun 10.2 01:25:01 18° SSE 01:28:54 24° SE 01:35:49 10° E visible
26 Jun 9.2 03:23:18 10° SW 03:32:41 68° SSE 03:41:55 10° ENE visible
27 Jun 10.2 01:04:22 19° SSE 01:07:21 22° SE 01:14:03 10° E visible
27 Jun 9.2 03:02:38 14° SW 03:11:05 65° SSE 03:20:17 10° ENE visible
28 Jun 10.2 00:43:39 19° SE 00:45:48 21° SE 00:52:16 10° E visible
28 Jun 9.1 02:41:55 17° SW 02:49:29 63° SE 02:58:41 10° ENE visible
29 Jun 10.2 00:22:54 19° SE 00:24:16 20° SE 00:30:27 10° E visible
29 Jun 9.1 02:21:10 21° SW 02:27:53 61° SE 02:37:03 10° ENE visible
30 Jun 10.3 00:02:05 18° SE 00:02:44 18° SE 00:08:37 10° E visible
30 Jun 9.2 02:00:21 25° SSW 02:06:17 59° SE 02:15:25 10° ENE visible
30 Jun 10.3 23:41:13 17° SE 23:41:13 17° SE 23:46:45 10° E visible
01 Jul 9.2 01:39:29 29° SSW 01:44:41 56° SE 01:53:47 10° ENE visible
01 Jul 9.2 03:39:58 10° WSW 03:49:34 78° NNW 03:58:57 10° ENE visible
01 Jul 10.4 23:20:18 16° ESE 23:20:18 16° ESE 23:24:51 10° E visible
02 Jul 9.2 01:18:33 32° SSW 01:23:05 54° SE 01:32:10 10° ENE visible
02 Jul 9.1 03:18:17 10° WSW 03:27:56 80° NNW 03:37:19 10° ENE visible
02 Jul 10.5 22:59:18 15° ESE 22:59:18 15° ESE 23:02:53 10° E visible
03 Jul 9.2 00:57:33 35° SSW 01:01:30 52° SE 01:10:32 10° ENE visible
03 Jul 9.1 02:56:37 10° WSW 03:06:17 81° NNW 03:15:42 10° ENE visible
03 Jul 10.5 22:38:14 13° ESE 22:38:14 13° ESE 22:40:52 10° E visible
04 Jul 9.2 00:36:29 37° S 00:39:55 50° SE 00:48:54 10° ENE visible
04 Jul 9.1 02:34:56 10° WSW 02:44:38 83° NNW 02:54:04 10° ENE visible
04 Jul 10.6 22:17:04 12° ESE 22:17:04 12° ESE 22:18:44 10° E visible
